Wetbulb
71.71 70.68 70.50 70.19 70.38 69.95 69.58 70.14 70.01 70.60 70.94 71.11 70.78 69.62 67.92 67.52 67.96 67.50 67.37 68.13 68.79 69.09 68.73 68.04 68.06 67.58 66.86 65.97 65.24 66.29 64.57 66.16
72.18 71.56 70.79 71.12 71.02 69.26 68.69 68.89 69.04 69.66 70.36 69.87 68.58 67.77 66.87 67.14 68.21 68.38 68.82 68.79 68.59 69.05 67.91 67.37 66.86 65.89 65.80 65.01 64.42 65.41 63.05 64.81
73.18 71.91 71.28 71.54 71.32 70.80 68.79 68.88 68.85 69.13 69.84 68.90 67.12 69.68 67.20 68.13 67.57 67.55 68.66 68.45 68.75 67.30 66.65 66.05 65.49 64.95 64.04 64.45 64.20 63.40 63.52 65.00
73.23 72.49 71.78 71.95 71.07 71.24 70.91 70.57 70.17 70.33 70.68 70.23 70.91 70.38 69.20 68.12 67.43 66.98 68.43 68.31 67.78 66.88 65.93 64.95 65.10 64.67 63.18 63.64 62.64 63.10 64.07 63.31
72.22 72.98 72.50 71.87 70.26 71.63 70.54 70.75 70.48 70.45 70.88 71.12 70.73 70.58 69.82 68.12 68.26 67.20 68.13 67.21 67.17 66.36 64.90 64.90 66.34 64.93 63.84 63.26 63.09 63.93 63.12 62.52
71.61 72.66 72.45 71.60 71.39 70.38 70.48 70.34 70.33 70.21 70.09 70.82 70.62 70.04 69.24 68.53 67.23 67.36 67.02 66.70 66.37 65.74 64.78 65.23 65.37 65.25 64.32 63.60 62.51 62.75 62.60 61.85
70.69 72.08 72.15 71.54 71.51 70.14 69.71 70.11 70.21 70.35 70.43 70.50 70.99 69.75 68.52 67.96 67.44 66.94 66.32 66.22 65.90 65.36 65.08 64.50 64.75 64.94 64.26 61.73 62.74 62.40 62.04 61.24
70.80 70.90 71.98 71.77 70.70 70.34 69.14 69.79 70.53 70.55 70.59 70.37 71.04 69.96 68.77 68.03 67.64 66.83 65.87 65.89 65.96 65.54 64.76 64.13 63.63 63.71 61.86 61.54 62.03 61.76 61.79 60.58
68.62 70.25 71.72 71.27 70.84 71.16 69.49 69.38 70.75 69.81 69.92 71.26 70.67 70.62 69.60 68.03 67.18 66.50 65.80 65.67 65.36 64.95 63.42 63.65 62.80 63.15 61.98 61.67 62.01 61.50 60.19 60.58
66.07 68.10 68.98 71.20 70.44 69.96 68.84 68.55 69.89 70.50 69.95 70.44 70.79 70.69 69.52 68.17 67.02 66.43 66.38 65.34 64.08 63.45 62.69 61.71 61.65 61.29 61.41 60.45 61.63 60.36 59.82 60.50
62.49 63.73 67.10 68.24 69.95 69.67 68.81 68.45 68.57 69.33 70.60 70.26 70.20 70.26 69.40 68.22 66.99 66.50 66.16 64.44 63.13 62.41 62.25 61.91 60.73 60.83 61.28 61.16 60.05 58.81 58.63 61.03
61.43 61.80 62.42 64.39 67.83 69.55 69.27 68.51 68.07 68.50 68.37 69.93 69.21 68.97 69.33 68.23 67.18 66.40 65.83 63.89 62.78 62.23 61.53 61.71 61.43 61.22 61.42 60.14 59.18 58.87 58.13 57.75
62.56 62.84 62.99 62.68 63.68 65.19 66.54 67.19 67.28 67.22 67.39 67.84 69.11 68.01 68.34 68.18 66.63 65.54 65.27 63.50 62.46 62.23 61.59 60.25 59.92 61.15 59.49 57.43 58.74 59.21 59.05 57.62
62.27 63.69 63.92 64.20 61.89 61.43 64.78 66.59 68.51 67.40 66.80 66.93 67.32 68.34 68.10 67.35 65.85 64.66 64.72 63.22 62.19 61.78 60.95 59.40 59.51 60.21 57.84 56.52 52.80 55.89 57.96 58.53
63.39 64.24 64.28 64.31 63.81 62.73 65.00 65.84 64.83 63.17 64.02 64.79 66.05 67.09 66.65 66.34 65.99 64.26 63.77 62.79 61.32 61.18 60.53 59.35 57.17 58.74 59.66 56.23 52.10 51.03 54.61 57.15
63.76 64.26 65.01 64.99 65.49 64.00 64.08 63.02 61.57 62.45 63.01 63.47 64.21 65.59 65.32 65.41 65.03 63.85 63.04 62.74 61.23 61.05 61.00 60.00 58.48 56.92 59.29 58.93 57.06 56.04 52.66 51.73
62.55 63.34 63.61 65.15 65.06 64.86 64.88 63.11 63.33 63.03 62.77 62.11 62.80 63.78 64.32 64.50 64.50 63.84 62.56 62.56 61.37 60.94 60.72 60.08 59.22 57.80 58.22 57.65 57.13 57.23 56.23 53.40
62.39 61.92 61.65 62.77 62.56 62.58 64.47 63.33 62.42 61.56 61.84 61.70 62.08 62.68 63.75 63.71 63.56 63.92 62.65 61.99 61.42 60.71 60.75 60.36 59.31 58.54 59.00 58.56 57.45 56.11 54.98 54.10
58.92 59.74 60.31 62.21 62.51 62.57 63.03 63.55 63.31 62.80 63.18 62.74 62.14 62.54 62.90 62.96 63.49 63.54 62.32 61.40 61.18 60.89 60.42 60.40 59.13 58.59 58.92 58.45 58.81 58.11 58.19 56.97
58.34 58.00 59.45 61.49 61.57 61.31 62.34 62.93 63.44 63.55 63.04 62.78 62.45 62.65 62.01 61.79 61.69 61.69 61.75 61.19 60.69 60.36 60.14 60.14 59.63 58.78 59.22 59.11 59.04 58.60 59.06 58.29
MSLP
1006.88 1007.48 1007.93 1008.28 1008.70 1009.15 1009.52 1009.86 1010.23 1010.65 1010.91 1011.39 1012.05 1012.59 1012.81 1013.28 1013.80 1014.07 1014.13 1014.52 1015.00 1015.18 1015.23 1015.49 1016.16 1016.82 1016.89 1016.48 1016.61 1017.01 1017.32 1017.31
1006.67 1007.36 1007.84 1008.20 1008.65 1009.07 1009.48 1009.73 1010.21 1010.63 1010.96 1011.44 1012.00 1012.43 1012.94 1013.43 1013.82 1014.15 1014.30 1014.74 1015.18 1015.51 1015.71 1015.67 1016.38 1016.89 1017.07 1016.94 1016.70 1016.85 1017.19 1017.70
1006.28 1007.03 1007.58 1007.86 1008.26 1008.92 1009.50 1009.72 1010.14 1010.61 1011.03 1011.40 1011.91 1012.34 1012.98 1013.38 1013.81 1014.13 1014.43 1014.70 1015.20 1015.64 1015.97 1016.18 1016.34 1017.17 1017.49 1017.33 1016.79 1016.70 1016.99 1017.85
1005.85 1006.47 1007.15 1007.59 1007.73 1008.43 1009.13 1009.56 1009.95 1010.49 1010.78 1011.29 1011.59 1011.91 1012.38 1012.70 1013.20 1013.89 1014.35 1014.71 1015.23 1015.79 1016.16 1016.40 1016.67 1017.31 1017.82 1017.64 1016.94 1016.61 1017.28 1018.10
1005.22 1006.00 1006.66 1007.26 1007.47 1007.86 1008.52 1008.91 1009.33 1009.87 1010.18 1010.61 1011.13 1011.36 1011.89 1012.43 1012.79 1013.52 1014.20 1014.69 1015.37 1015.88 1016.45 1016.39 1016.39 1017.18 1017.54 1017.45 1017.03 1016.81 1017.66 1018.18
1004.15 1005.09 1006.06 1006.78 1007.16 1007.59 1008.02 1008.36 1008.64 1009.11 1009.51 1009.95 1010.48 1010.87 1011.37 1012.00 1012.51 1013.18 1013.84 1014.38 1015.02 1015.57 1016.22 1016.08 1016.28 1016.61 1017.00 1017.18 1016.94 1016.80 1017.50 1018.25
1003.35 1004.26 1005.21 1006.10 1006.72 1007.37 1007.83 1007.89 1008.07 1008.37 1008.79 1009.23 1009.77 1010.36 1010.80 1011.34 1012.07 1012.72 1013.45 1014.02 1014.61 1015.24 1015.75 1015.92 1016.16 1016.14 1016.40 1016.68 1016.63 1016.67 1017.37 1018.27
1002.87 1003.62 1004.50 1005.38 1006.15 1006.78 1007.28 1007.70 1007.49 1007.79 1008.24 1008.52 1009.18 1009.62 1010.16 1010.82 1011.61 1012.39 1013.02 1013.59 1014.19 1014.65 1015.34 1015.85 1016.32 1016.25 1016.35 1016.25 1016.47 1016.56 1017.29 1018.16
1002.36 1003.13 1003.88 1004.71 1005.41 1006.10 1006.75 1007.32 1007.21 1007.40 1007.75 1007.80 1008.45 1009.06 1009.52 1010.25 1011.01 1011.82 1012.39 1013.08 1013.79 1014.42 1015.15 1015.70 1016.39 1016.87 1016.42 1016.04 1016.38 1016.46 1017.08 1018.01
1001.72 1002.15 1002.98 1003.78 1004.62 1005.46 1006.16 1006.90 1007.01 1006.94 1007.07 1007.39 1007.79 1008.46 1009.01 1009.80 1010.52 1011.27 1011.95 1012.75 1013.59 1014.28 1015.14 1015.89 1016.41 1016.51 1016.28 1016.23 1016.43 1016.44 1017.14 1017.88
1001.40 1001.79 1002.61 1003.14 1003.76 1004.68 1005.48 1006.20 1006.63 1006.64 1006.53 1006.93 1007.34 1008.09 1008.67 1009.38 1010.11 1010.92 1011.67 1012.75 1013.46 1014.12 1015.32 1015.45 1016.33 1016.47 1016.32 1016.43 1016.49 1016.64 1017.13 1017.66
1001.66 1002.12 1002.38 1002.99 1003.36 1003.92 1004.90 1005.60 1005.98 1006.35 1006.58 1006.75 1007.15 1007.77 1008.49 1009.12 1009.88 1010.64 1011.34 1012.42 1013.24 1013.92 1014.78 1015.26 1015.72 1016.55 1016.38 1016.22 1016.50 1016.72 1017.02 1017.69
1001.90 1002.20 1002.48 1002.86 1003.26 1003.55 1003.98 1004.75 1005.33 1005.79 1006.13 1006.73 1007.03 1007.41 1008.14 1008.90 1009.68 1010.37 1011.11 1011.91 1012.60 1013.43 1014.38 1014.93 1015.99 1016.22 1016.49 1016.41 1016.76 1016.67 1017.20 1017.56
1002.13 1002.25 1002.26 1002.31 1002.67 1002.88 1003.23 1003.74 1004.34 1005.07 1005.71 1006.45 1006.68 1006.99 1007.42 1008.33 1009.21 1010.06 1010.70 1011.53 1012.17 1012.92 1013.63 1014.41 1015.16 1015.27 1015.85 1016.15 1016.97 1017.29 1017.06 1017.51
1002.48 1002.33 1002.02 1001.69 1001.76 1002.18 1002.72 1003.59 1004.47 1005.26 1005.60 1006.16 1006.32 1006.79 1007.11 1007.81 1008.69 1009.65 1010.32 1010.99 1011.55 1012.21 1012.89 1013.60 1014.12 1014.77 1015.24 1015.10 1016.08 1016.57 1017.03 1017.61
1002.67 1002.50 1001.80 1001.22 1001.35 1001.91 1002.52 1003.40 1004.28 1004.81 1005.37 1005.88 1006.15 1006.45 1007.02 1007.59 1008.28 1009.11 1009.86 1010.40 1011.08 1011.59 1012.16 1012.74 1013.50 1014.12 1014.67 1014.51 1014.88 1015.17 1016.16 1017.52
1002.50 1002.47 1002.19 1001.54 1001.59 1002.02 1002.47 1003.23 1003.86 1004.50 1004.98 1005.54 1005.87 1006.33 1006.70 1007.25 1007.84 1008.48 1009.33 1009.87 1010.45 1010.93 1011.50 1012.15 1012.58 1013.07 1013.25 1013.91 1014.35 1014.64 1015.57 1016.33
1002.32 1002.12 1002.20 1002.27 1002.48 1002.60 1002.75 1003.01 1003.58 1004.23 1004.44 1004.78 1005.29 1005.86 1006.21 1006.64 1007.21 1007.85 1008.60 1009.35 1009.81 1010.33 1010.85 1011.08 1011.55 1012.40 1012.73 1013.11 1013.36 1013.63 1014.63 1015.52
1002.56 1002.30 1001.74 1002.01 1002.62 1002.81 1003.00 1003.06 1003.15 1003.40 1003.56 1003.91 1004.50 1005.05 1005.58 1005.99 1006.60 1007.27 1007.98 1008.66 1009.27 1009.74 1010.01 1010.26 1010.20 1011.41 1011.87 1012.24 1012.56 1012.67 1013.54 1014.42
1002.51 1002.72 1002.19 1001.90 1002.57 1002.85 1003.00 1003.01 1003.03 1003.04 1003.12 1003.28 1003.67 1004.32 1005.14 1005.72 1006.28 1007.03 1007.46 1008.12 1008.69 1009.05 1009.41 1009.51 1009.90 1010.43 1010.97 1011.39 1011.90 1012.11 1012.57 1013.17
Wind_Speed
11 10 11 10 11 10 9 10 10 11 11 12 11 11 11 12 15 14 10 9 14 15 18 18 13 9 6 6 5 0 5 7
13 10 9 9 8 10 9 10 11 9 11 10 10 12 12 9 11 11 12 11 8 12 14 15 12 8 6 5 6 5 4 7
11 11 10 9 10 9 9 10 10 10 10 10 10 8 9 11 11 13 11 11 12 12 12 13 13 8 6 7 5 4 8 8
10 11 11 9 8 10 9 9 8 8 8 9 8 9 10 11 11 12 12 12 13 13 12 13 12 5 3 4 3 6 9 8
13 12 10 9 7 8 6 6 6 7 11 10 10 8 7 7 4 6 6 9 6 8 8 6 8 6 5 4 5 7 8 8
17 15 13 11 6 5 7 7 8 7 9 11 9 6 7 6 6 6 7 6 7 8 5 7 7 10 9 7 7 2 8 8
17 16 14 12 8 8 7 7 8 9 9 11 9 9 8 7 7 7 7 8 8 7 7 7 9 11 10 7 6 4 12 8
12 13 14 13 12 11 9 8 7 7 8 10 12 9 8 8 7 7 8 9 8 7 7 6 3 0 9 7 6 3 15 13
10 12 13 14 12 10 9 8 8 10 9 9 14 11 9 10 8 8 6 7 10 7 4 3 5 6 8 7 4 5 9 14
11 13 13 15 13 10 7 9 9 7 10 8 11 12 9 9 7 6 6 7 7 8 5 4 5 7 5 4 4 5 9 13
2 3 10 12 12 12 12 13 9 8 5 8 10 10 11 9 7 7 9 8 8 9 6 8 6 3 6 7 4 5 6 10
5 4 4 4 7 9 10 9 10 9 7 6 10 7 9 9 7 7 9 9 9 8 10 7 7 5 10 7 4 6 6 5
4 4 7 4 3 6 8 11 10 10 10 9 11 12 11 11 7 7 9 10 12 12 9 13 9 8 8 4 1 7 8 5
5 7 8 7 6 5 7 8 9 8 9 11 10 13 14 11 9 9 11 8 13 13 13 7 8 5 7 8 4 1 3 4
7 8 10 7 8 5 3 4 5 3 6 8 11 10 9 10 12 10 11 10 11 15 14 15 12 6 10 9 6 5 6 3
4 10 9 5 8 6 9 5 6 5 6 5 6 6 10 11 11 10 11 9 12 13 13 14 13 11 9 10 5 8 9 6
5 3 9 5 3 3 5 8 5 5 7 9 8 8 9 10 12 13 12 10 11 14 15 16 13 12 10 12 9 9 9 8
6 5 4 3 4 6 4 8 9 8 10 10 9 8 9 12 13 12 12 12 12 13 16 20 17 14 10 12 11 10 12 11
5 12 7 6 4 4 7 7 11 12 11 9 9 8 8 10 9 11 10 12 12 12 13 15 18 16 16 13 12 8 12 10
5 8 14 7 4 5 6 6 6 7 6 7 6 6 6 5 5 6 8 9 11 12 10 10 15 18 14 13 11 12 11 10
Wind_Direction
138 157 160 153 155 162 162 159 163 166 164 157 163 143 146 143 145 160 157 155 176 181 163 144 141 157 179 198 240 35 303 130
142 159 166 165 164 166 168 167 170 174 161 155 148 144 150 149 157 166 161 166 179 146 145 137 143 156 169 223 249 291 222 138
147 159 173 173 170 169 167 165 173 178 159 157 154 171 167 166 187 171 172 171 160 151 147 147 137 153 177 219 266 269 87 109
164 165 169 174 181 158 179 177 177 187 190 171 182 192 178 186 180 172 166 164 143 147 145 141 133 142 183 231 257 272 106 117
175 166 166 183 186 155 176 184 182 187 192 179 190 192 183 199 164 171 165 161 154 140 143 161 151 163 181 210 236 267 121 118
175 170 167 182 163 175 184 190 184 186 193 191 183 193 180 188 175 169 165 172 157 165 175 182 161 175 176 208 224 226 123 119
173 167 168 173 179 176 198 204 189 191 189 190 194 189 185 179 180 168 174 164 174 176 174 181 185 192 177 195 200 228 130 127
161 168 164 171 187 180 187 216 202 197 194 193 198 189 181 181 179 177 182 169 171 171 168 186 202 189 211 166 198 182 124 130
164 161 168 176 186 192 181 208 233 196 210 191 188 192 184 183 184 171 168 158 158 162 184 199 157 205 191 162 186 166 128 130
179 177 180 176 184 177 185 211 221 227 196 206 183 189 188 182 178 177 152 164 158 152 137 177 239 195 198 187 178 141 122 139
102 73 169 187 181 179 187 198 217 234 221 196 188 182 191 182 184 171 154 150 157 150 166 184 218 230 175 207 196 143 142 156
4 336 319 194 187 181 183 195 207 210 228 208 179 183 193 186 183 168 159 159 161 163 172 165 172 226 202 183 183 153 146 165
258 253 242 219 207 192 199 189 200 205 206 225 186 189 194 195 174 171 169 171 169 172 176 177 197 206 193 182 139 151 157 174
282 256 233 215 206 217 207 209 188 191 186 204 234 186 187 181 168 177 182 170 170 170 172 181 192 185 188 163 160 212 136 180
309 280 272 222 210 207 160 70 101 129 177 190 209 184 179 181 173 174 181 176 179 177 178 183 188 199 210 168 158 181 151 187
315 318 303 256 193 227 149 169 171 185 180 190 200 200 171 187 185 174 183 180 185 188 185 185 187 194 185 190 194 146 166 158
285 298 315 342 9 294 184 175 193 169 175 181 192 218 193 191 188 187 184 186 182 185 188 189 196 193 185 190 194 153 184 160
339 241 241 47 333 309 236 191 183 188 195 188 191 206 198 195 199 185 179 189 189 193 197 194 187 194 202 190 197 172 182 167
356 333 297 149 196 260 276 220 202 215 200 183 179 189 200 200 186 183 180 185 195 196 200 203 187 187 195 188 200 202 180 174
60 347 322 125 168 233 241 244 244 231 192 177 180 181 175 170 177 160 182 182 200 202 206 207 198 192 193 186 197 209 185 173